Home   Weather   Town of Fairfield   Past weeks
Flag for USA

Past Weather in Town of Fairfield, New York, USA — Yesterday and Last 2 Weeks

Now
85 °F

Sunny.


Feels Like: 84 °F
Forecast: 87 / 58 °F
Wind: 8 mph from West

Location: Griffiss Air Force Base / Rome

Current Time: Jul 5, 2020 at 2:01:07 pm

Latest Report: Jul 5, 2020 at 12:53 pm


Visibility: 10 mi

Pressure: 29.96 "Hg

Humidity: 40%

Dew Point: 58 °F

Location of Town of FairfieldLocation

Past Weather in Town of Fairfield — Graph

°F

Town of Fairfield Temperature Yesterday

Maximum temperature yesterday: 88 °F (at 3:53 pm)
Minimum temperature yesterday: 59 °F (at 4:53 am)
Average temperature yesterday: 73 °F

High & Low Weather Summary for the Past Weeks

 TemperatureHumidityPressure
High92 °F (Jun 22, 4:53 pm)97% (Jul 1, 7:04 am)30.01 "Hg (Jul 1, 7:04 am)
Low51 °F (Jun 25, 5:53 am)26% (Jun 26, 5:53 pm)29.59 "Hg (Jun 23, 6:53 pm)
Average72 °F70%29.86 "Hg
* Reported Jun 20 12:53 pm — Jul 5 12:53 pm, Town of Fairfield. Weather by CustomWeather, © 2020

Note: Actual official high and low records may vary slightly from our data, if they occured in-between our weather recording intervals... More about our weather records

Town of Fairfield Weather History for the Previous 24 Hours

Scroll right to see more
 ConditionsComfort  
Time TempWeatherWind HumidityBarometerVisibility
12:53 pm
Sun, Jul 5
85 °FSunny.8 mph40%29.96 "Hg10 mi
11:53 am83 °FSunny.8 mph44%29.96 "Hg10 mi
10:53 am79 °FSunny.5 mph48%29.97 "Hg10 mi
9:53 am75 °FSunny.5 mph55%29.98 "Hg10 mi
7:53 am63 °FSunny.No wind78%30.00 "Hg10 mi
6:53 am59 °FSunny.3 mph84%29.99 "Hg10 mi
5:53 am56 °FSunny.No wind87%29.99 "Hg10 mi
4:53 am57 °FClear.No wind83%29.97 "Hg10 mi
3:53 am57 °FClear.No wind87%29.96 "Hg10 mi
2:53 am58 °FClear.No wind87%29.96 "Hg10 mi
1:53 am59 °FClear.No wind81%29.96 "Hg10 mi
12:53 am60 °FClear.3 mph80%29.96 "Hg9 mi
11:53 pm
Sat, Jul 4
63 °FClear.No wind75%29.95 "Hg10 mi
10:53 pm66 °FClear.No wind70%29.94 "Hg10 mi
9:53 pm67 °FClear.3 mph73%29.94 "Hg10 mi
8:53 pm74 °FClear.No wind56%29.92 "Hg10 mi
7:53 pm81 °FSunny.9 mph37%29.90 "Hg10 mi
6:53 pm85 °FSunny.12 mph35%29.89 "Hg10 mi
5:53 pm88 °FSunny.14 mph33%29.89 "Hg10 mi
4:53 pm86 °FOvercast.No wind49%29.89 "Hg10 mi
3:53 pm88 °FMostly cloudy.N/A45%29.89 "Hg10 mi
2:53 pm87 °FScattered clouds.9 mph46%29.90 "Hg10 mi
Weather by CustomWeather, © 2020

See weather overview